Wind_Speed
9 9 8 8 8 8 8 8 7 6 6 6 5 5 5 5 5 5 4 4 4 5 5 5 5 5 5 5 5 5 6 6 7 7 7 7 8 9 9 9 10 11 11
11 10 10 9 9 9 9 9 9 8 7 7 7 6 6 6 6 5 5 5 5 5 5 5 5 5 6 6 6 7 7 8 8 8 8 8 9 9 10 11 11 12 13
12 12 11 11 10 10 11 11 10 9 9 8 8 8 7 7 7 7 6 6 6 6 6 6 6 6 7 7 7 7 8 9 9 9 9 10 10 11 12 13 13 13 13
13 12 12 12 11 11 11 12 11 10 10 9 9 9 9 8 8 8 8 7 7 7 7 7 7 7 7 8 8 8 9 10 10 11 11 12 12 13 13 14 14 14 14
13 13 13 13 12 12 12 12 12 12 11 10 10 10 10 10 9 9 8 8 8 8 8 8 9 9 9 9 10 10 11 11 11 12 12 13 13 14 14 15 15 15 16
14 13 13 14 14 14 14 13 14 13 13 12 12 11 10 10 10 9 9 9 9 9 10 10 10 10 11 11 12 12 12 12 12 13 13 13 13 14 15 15 16 16 17
15 15 15 14 14 15 15 15 15 14 14 14 13 13 12 12 11 11 11 11 11 11 11 11 12 11 12 13 13 13 13 13 14 14 14 14 15 16 16 17 18 18 19
16 16 16 16 16 15 16 16 16 16 16 15 15 14 13 13 13 13 13 12 12 12 12 12 12 13 13 13 14 14 14 15 15 15 16 17 17 18 19 19 20 21 21
18 18 18 17 17 17 17 18 17 17 16 16 16 15 15 14 14 14 14 13 13 13 14 14 14 14 15 15 15 15 16 16 17 17 18 19 20 20 21 22 22 23 23
19 19 19 19 18 19 19 19 19 19 18 18 17 17 16 16 16 16 15 14 14 14 15 15 16 16 16 16 17 17 17 18 19 19 20 21 22 22 23 23 24 25 25
20 19 20 19 19 19 19 19 20 19 19 18 18 17 17 17 17 16 16 16 16 16 16 16 17 17 18 18 18 18 19 19 20 20 21 22 24 24 25 25 26 26 26
21 20 20 20 21 20 20 19 19 20 20 19 19 18 18 18 17 17 17 17 17 18 18 18 18 18 18 19 19 20 21 21 22 23 24 25 25 26 26 26 27 28 28
21 21 21 21 22 22 21 21 20 20 20 21 20 20 19 19 18 19 18 18 19 19 19 19 19 20 20 20 21 22 22 23 23 24 25 26 27 27 27 28 29 29 29
22 22 23 23 23 23 22 22 21 21 22 22 21 21 21 21 21 21 21 20 20 20 20 20 21 21 21 22 22 23 23 24 24 25 26 27 27 28 28 29 29 30 30
23 23 23 22 22 22 21 21 21 21 22 22 22 21 22 22 22 22 21 21 22 22 22 22 22 22 22 23 24 24 24 25 26 27 28 28 29 29 30 30 30 31 31
23 23 23 22 22 22 22 21 21 21 21 22 22 23 22 22 22 22 22 22 22 22 23 23 23 24 24 24 24 25 26 27 28 28 29 29 30 30 30 31 31 32 32
22 22 23 23 22 22 22 22 21 21 21 22 23 22 22 22 22 22 22 22 23 23 23 23 24 24 25 25 25 26 27 28 28 28 29 29 30 30 31 31 32 32 33
22 22 23 22 22 23 23 23 22 22 22 22 23 23 23 23 23 24 24 24 24 24 24 24 24 24 25 26 26 26 27 28 28 28 28 29 30 30 31 32 32 33 34
22 22 23 23 22 23 24 24 23 23 22 22 22 23 23 23 23 23 24 24 25 25 25 25 25 25 25 26 26 27 27 27 27 28 28 29 30 31 32 33 34 35 36
23 23 23 23 23 24 24 24 23 23 22 22 22 22 22 23 23 24 24 25 25 25 25 25 26 27 27 27 27 28 28 28 28 29 30 31 32 32 34 35 36 37 37
24 23 23 23 23 23 23 23 22 22 22 21 21 22 22 22 23 23 24 24 25 25 25 25 26 27 28 28 28 28 29 29 30 31 31 33 34 35 36 37 37 38 39
24 24 23 23 23 23 22 22 22 22 22 22 22 22 22 22 23 24 24 25 25 25 26 26 26 27 28 29 29 30 29 30 31 32 33 34 36 36 37 39 39 40 40
24 24 24 23 23 23 22 22 22 22 22 23 22 22 22 23 23 23 24 24 25 25 26 26 27 27 28 29 30 31 31 32 33 34 35 36 36 37 38 39 40 40 41
24 24 23 24 24 23 22 22 22 22 23 23 23 23 23 23 23 23 23 24 25 26 26 27 28 29 30 31 31 32 32 34 35 35 36 37 38 39 40 40 40 41 42
24 24 24 23 23 23 23 23 22 22 23 23 23 23 23 23 24 24 24 24 25 26 27 28 29 30 30 31 31 33 33 35 36 37 38 38 39 40 40 40 41 41 42
24 24 25 24 23 23 24 24 23 23 24 24 24 24 24 24 24 24 25 25 26 27 28 29 30 31 31 31 32 34 35 36 37 37 38 39 39 39 40 40 41 41 42
Wind_Direction
276 276 271 269 271 265 257 250 246 250 248 242 241 244 245 245 255 259 268 272 275 270 269 273 279 284 280 282 292 299 306 310 313 308 304 303 304 307 311 309 307 307 305
275 276 271 266 268 263 257 251 248 246 247 248 248 250 251 254 261 264 271 272 275 273 271 272 276 281 283 281 286 294 302 307 311 308 305 308 309 310 310 308 306 307 304
270 272 270 267 266 262 257 252 249 245 246 250 252 255 255 256 262 267 270 269 269 271 273 271 273 278 279 281 284 290 297 302 306 307 306 307 306 306 308 307 304 304 304
266 267 268 265 263 260 257 254 250 247 245 250 256 257 258 261 262 263 264 266 266 270 271 272 275 277 278 281 285 289 294 297 299 303 305 304 304 304 304 305 304 303 303
263 262 263 264 261 258 255 251 249 250 250 252 255 257 260 261 261 261 262 264 268 273 275 280 281 278 279 280 283 287 291 293 295 298 301 303 304 304 306 305 305 303 301
261 260 260 260 258 257 255 251 250 252 254 256 259 259 259 258 259 262 266 269 274 276 278 278 279 280 280 281 285 288 290 294 296 297 299 302 304 306 306 307 306 304 302
261 259 259 259 257 254 253 251 250 252 254 256 258 258 256 256 256 260 266 270 274 275 277 279 278 280 283 285 290 292 292 294 296 297 298 299 301 303 304 305 304 302 301
261 259 260 258 255 254 253 250 250 253 254 254 256 257 257 257 258 262 265 271 273 276 280 281 280 282 282 285 288 291 292 293 294 295 296 298 300 301 302 302 302 300 300
261 260 258 257 256 255 255 252 251 253 254 254 255 256 258 258 259 262 266 269 273 276 279 281 280 281 282 284 288 291 291 291 293 294 294 296 298 299 300 300 300 300 299
261 260 256 256 257 257 255 252 251 252 253 253 254 255 257 259 259 262 265 269 274 277 279 280 283 282 282 283 286 290 292 293 295 296 296 296 299 300 300 300 300 300 300
260 258 256 256 257 257 256 254 252 252 252 251 253 254 256 258 259 261 265 268 274 278 280 281 283 284 283 283 286 290 292 294 297 297 298 299 300 301 302 301 301 301 301
260 258 256 255 256 257 256 255 253 253 253 251 251 253 254 256 258 261 264 268 273 276 279 282 283 285 284 284 287 290 292 293 295 297 298 300 301 301 301 301 301 301 301
261 259 258 257 257 258 258 256 253 252 253 253 252 253 253 255 259 261 264 268 272 275 279 281 282 283 285 285 285 288 290 292 294 296 299 301 301 301 301 301 300 300 301
260 259 259 259 258 259 258 256 253 252 253 254 255 255 255 257 260 262 264 268 271 273 276 280 281 282 283 284 285 287 289 291 293 296 299 301 302 303 303 302 301 301 301
262 261 260 259 257 257 256 255 254 253 252 252 253 254 256 258 261 263 266 268 271 273 275 278 280 281 283 284 286 287 288 291 294 297 298 300 302 303 302 302 303 302 302
263 261 259 258 257 254 254 255 256 255 255 254 254 255 255 258 260 264 268 271 272 275 276 278 280 281 283 285 286 287 288 290 293 296 298 299 301 302 302 303 303 303 303
260 260 258 257 257 254 256 256 256 255 254 255 256 257 259 261 264 265 267 270 273 276 277 278 280 282 283 286 288 289 289 291 293 295 298 300 302 302 303 304 304 304 304
259 258 257 256 255 254 255 256 258 257 255 256 257 258 261 263 266 268 269 271 274 276 277 279 281 284 285 287 288 289 290 291 294 296 299 302 303 304 304 304 304 305 305
258 259 256 256 256 254 255 256 256 258 258 257 258 260 263 264 266 269 272 274 275 277 277 280 282 284 287 289 290 292 293 294 297 300 301 303 304 304 305 305 305 305 305
256 256 256 256 257 256 256 254 254 257 259 258 258 262 264 265 265 267 271 274 276 278 278 279 282 285 287 290 292 293 295 296 298 300 301 302 303 303 304 304 304 304 305
255 254 255 255 255 256 256 255 255 256 259 259 259 261 263 265 267 269 271 274 276 278 279 282 284 286 289 290 293 295 296 296 298 299 300 301 302 302 303 304 304 304 305
255 253 253 253 254 255 254 253 256 258 259 260 261 262 265 267 269 272 274 276 276 278 280 283 286 288 290 291 293 295 295 297 298 298 300 301 303 303 303 304 305 305 305
253 254 253 253 253 253 256 256 256 257 259 260 261 263 266 269 272 274 275 276 278 280 283 285 287 289 291 292 294 295 296 297 298 298 299 301 302 303 304 304 304 305 305
251 253 251 250 252 252 254 256 256 257 260 261 261 266 269 270 272 274 275 276 278 281 283 285 287 289 291 292 293 295 296 297 298 299 299 300 301 303 303 304 305 305 305
251 253 251 250 252 253 254 256 257 259 260 261 263 266 268 271 273 274 276 277 280 282 283 285 287 289 292 293 294 295 296 297 298 300 301 301 302 302 303 304 305 305 305
250 250 250 252 252 254 255 256 258 260 261 263 264 265 268 271 273 274 277 280 281 283 284 286 288 290 292 294 295 297 297 298 299 300 301 302 303 303 304 305 305 305 305
Height
5844 5844 5843 5843 5843 5843 5843 5843 5844 5844 5844 5845 5845 5845 5845 5845 5845 5845 5845 5844 5844 5844 5843 5843 5843 5843 5843 5842 5842 5842 5841 5841 5840 5839 5838 5838 5837 5836 5835 5834 5833 5832 5831
5842 5841 5841 5841 5841 5841 5841 5842 5842 5843 5843 5843 5844 5844 5844 5844 5844 5844 5844 5843 5843 5842 5842 5842 5842 5841 5841 5841 5841 5841 5840 5839 5838 5838 5837 5836 5835 5834 5833 5832 5830 5829 5828
5839 5839 5839 5839 5839 5839 5839 5840 5840 5841 5841 5842 5842 5842 5842 5842 5842 5842 5842 5842 5841 5841 5841 5841 5840 5840 5840 5840 5840 5839 5838 5838 5837 5836 5835 5834 5833 5832 5830 5829 5828 5826 5825
5836 5836 5836 5836 5836 5836 5837 5837 5838 5839 5839 5840 5840 5840 5841 5841 5841 5840 5840 5840 5840 5840 5839 5839 5839 5838 5838 5838 5838 5837 5836 5836 5835 5834 5833 5831 5830 5829 5827 5826 5825 5823 5822
5832 5832 5833 5833 5833 5834 5834 5835 5836 5836 5837 5837 5838 5838 5838 5838 5838 5838 5838 5838 5838 5838 5837 5837 5837 5836 5836 5836 5835 5835 5834 5833 5832 5831 5830 5829 5827 5826 5825 5823 5822 5820 5819
5829 5829 5829 5830 5830 5830 5831 5832 5833 5834 5834 5835 5835 5836 5836 5836 5836 5836 5836 5836 5836 5836 5835 5835 5834 5834 5834 5833 5833 5832 5831 5830 5829 5828 5827 5826 5824 5823 5821 5820 5818 5816 5815
5825 5825 5826 5826 5826 5827 5828 5829 5830 5830 5831 5832 5832 5833 5833 5833 5833 5833 5833 5833 5833 5833 5833 5832 5832 5831 5831 5830 5830 5829 5828 5827 5826 5825 5824 5822 5821 5819 5818 5816 5814 5812 5811
5821 5821 5821 5822 5823 5823 5824 5825 5826 5827 5827 5828 5829 5829 5830 5830 5830 5830 5830 5830 5830 5830 5830 5829 5829 5828 5828 5827 5827 5826 5825 5824 5822 5821 5820 5819 5817 5815 5813 5811 5809 5807 5806
5816 5816 5817 5817 5818 5819 5820 5820 5822 5823 5823 5824 5825 5825 5826 5826 5827 5827 5827 5827 5827 5827 5826 5826 5825 5825 5824 5824 5823 5822 5821 5820 5818 5817 5816 5814 5812 5810 5808 5806 5804 5802 5800
5811 5811 5811 5812 5813 5814 5814 5815 5817 5818 5819 5820 5820 5821 5822 5822 5823 5823 5823 5823 5823 5823 5823 5822 5822 5821 5820 5819 5819 5818 5817 5815 5814 5813 5811 5809 5807 5805 5803 5801 5798 5796 5793
5805 5805 5806 5807 5807 5808 5809 5810 5811 5812 5813 5815 5816 5817 5817 5818 5818 5819 5819 5819 5819 5819 5819 5818 5817 5816 5816 5815 5814 5813 5812 5811 5809 5807 5806 5804 5801 5799 5797 5794 5792 5789 5787
5799 5800 5800 5801 5802 5802 5803 5805 5806 5807 5808 5809 5810 5811 5812 5813 5813 5814 5814 5814 5815 5815 5814 5813 5813 5812 5811 5810 5809 5808 5807 5805 5804 5802 5800 5798 5795 5793 5790 5788 5785 5782 5779
5793 5794 5794 5795 5796 5796 5797 5798 5799 5801 5802 5804 5805 5806 5807 5807 5808 5809 5809 5809 5809 5809 5809 5808 5807 5807 5806 5805 5804 5803 5801 5799 5798 5796 5794 5791 5789 5786 5783 5780 5777 5774 5771
5786 5787 5788 5789 5789 5790 5791 5792 5793 5795 5796 5798 5799 5800 5801 5802 5802 5803 5803 5803 5803 5803 5803 5802 5802 5801 5800 5799 5798 5796 5795 5793 5791 5789 5787 5784 5781 5778 5775 5772 5769 5766 5763
5780 5780 5781 5782 5783 5784 5785 5786 5787 5788 5789 5791 5792 5793 5795 5796 5796 5797 5797 5797 5797 5797 5797 5796 5796 5795 5794 5792 5791 5790 5788 5786 5784 5782 5780 5777 5774 5771 5768 5764 5761 5758 5755
5773 5774 5774 5776 5776 5777 5779 5780 5781 5782 5783 5784 5786 5787 5788 5789 5790 5790 5791 5791 5791 5791 5791 5790 5789 5788 5787 5785 5784 5782 5781 5779 5777 5774 5772 5769 5766 5763 5760 5756 5753 5750 5746
5766 5767 5768 5769 5770 5771 5772 5773 5774 5776 5777 5778 5779 5780 5782 5782 5783 5784 5784 5784 5784 5784 5784 5783 5782 5781 5780 5778 5776 5775 5773 5771 5769 5766 5764 5761 5758 5754 5751 5748 5745 5741 5738
5759 5760 5761 5762 5763 5765 5766 5767 5768 5769 5770 5771 5772 5774 5775 5776 5777 5777 5777 5778 5778 5777 5777 5776 5775 5773 5772 5770 5769 5767 5765 5763 5760 5758 5755 5752 5749 5746 5743 5740 5736 5733 5729
5752 5753 5754 5755 5757 5758 5759 5760 5761 5763 5764 5765 5766 5767 5768 5769 5770 5770 5770 5771 5770 5770 5769 5768 5767 5766 5764 5763 5761 5759 5757 5754 5752 5750 5747 5744 5741 5738 5734 5731 5727 5723 5719
5745 5746 5747 5749 5750 5751 5752 5753 5755 5756 5757 5758 5759 5760 5761 5762 5762 5763 5763 5763 5762 5762 5762 5761 5760 5758 5757 5755 5753 5751 5749 5747 5744 5742 5739 5736 5732 5729 5726 5722 5718 5713 5709
5738 5739 5740 5742 5743 5744 5745 5746 5748 5749 5750 5751 5752 5753 5754 5755 5755 5756 5756 5755 5755 5754 5754 5753 5752 5750 5749 5747 5745 5743 5741 5738 5736 5733 5730 5727 5724 5720 5716 5712 5708 5703 5698
5731 5732 5733 5735 5736 5737 5738 5740 5741 5742 5743 5744 5745 5746 5747 5748 5748 5748 5748 5748 5747 5746 5746 5745 5744 5742 5741 5739 5737 5734 5732 5730 5727 5724 5721 5718 5714 5710 5706 5701 5697 5692 5687
5723 5725 5726 5728 5729 5731 5732 5733 5734 5735 5737 5738 5738 5739 5740 5740 5740 5740 5740 5740 5739 5738 5737 5736 5735 5734 5732 5730 5728 5726 5723 5721 5718 5714 5711 5707 5704 5700 5695 5691 5686 5681 5676
5716 5718 5719 5721 5723 5724 5725 5727 5728 5729 5730 5731 5731 5732 5733 5733 5733 5733 5732 5732 5731 5731 5730 5728 5727 5725 5723 5721 5719 5716 5714 5711 5708 5704 5701 5697 5693 5689 5684 5680 5675 5670 5665
5709 5711 5713 5714 5716 5717 5719 5720 5721 5722 5723 5724 5724 5725 5725 5725 5726 5725 5725 5724 5723 5723 5721 5720 5718 5716 5714 5712 5709 5707 5704 5701 5697 5694 5690 5686 5682 5677 5673 5668 5663 5658 5653
5702 5704 5706 5708 5709 5711 5712 5713 5714 5715 5716 5717 5717 5718 5718 5718 5718 5717 5717 5716 5715 5714 5713 5711 5709 5707 5705 5703 5700 5697 5694 5690 5687 5683 5679 5675 5671 5666 5661 5657 5652 5647 5642